QPF
0.00 0.00 0.00 0.00 0.00 0.00 0.00 0.00 0.00 0.00 0.00 0.00 0.00 0.00 0.00 0.00 0.00 0.00 0.00 0.00 0.00 0.00 0.02 0.04 0.05 0.08 0.08 0.07 0.07 0.09 0.11 0.07 0.06 0.05 0.05 0.05 0.04 0.04 0.05 0.04 0.04 0.04 0.05 0.05
0.00 0.00 0.00 0.00 0.00 0.00 0.00 0.00 0.00 0.00 0.00 0.00 0.00 0.00 0.00 0.00 0.00 0.00 0.00 0.00 0.00 0.01 0.02 0.04 0.07 0.11 0.10 0.10 0.12 0.08 0.08 0.08 0.07 0.08 0.09 0.09 0.09 0.08 0.08 0.07 0.07 0.08 0.09 0.10
0.00 0.00 0.00 0.00 0.00 0.00 0.00 0.00 0.00 0.00 0.00 0.00 0.00 0.00 0.00 0.00 0.00 0.00 0.00 0.00 0.00 0.01 0.03 0.05 0.08 0.15 0.15 0.14 0.14 0.13 0.15 0.16 0.17 0.17 0.18 0.18 0.15 0.14 0.15 0.15 0.16 0.17 0.16 0.15
0.00 0.00 0.00 0.00 0.00 0.00 0.00 0.00 0.00 0.00 0.00 0.00 0.00 0.00 0.00 0.00 0.00 0.00 0.00 0.00 0.01 0.01 0.01 0.04 0.08 0.16 0.23 0.20 0.20 0.22 0.27 0.34 0.38 0.38 0.36 0.32 0.27 0.25 0.24 0.24 0.23 0.21 0.18 0.16
0.00 0.00 0.00 0.00 0.00 0.00 0.00 0.00 0.00 0.00 0.00 0.00 0.00 0.00 0.00 0.01 0.00 0.00 0.00 0.01 0.01 0.01 0.02 0.03 0.05 0.08 0.14 0.19 0.29 0.35 0.37 0.42 0.45 0.45 0.47 0.45 0.41 0.38 0.38 0.34 0.26 0.22 0.21 0.21
0.00 0.00 0.00 0.00 0.00 0.00 0.00 0.00 0.00 0.00 0.00 0.00 0.00 0.00 0.00 0.01 0.01 0.01 0.01 0.01 0.01 0.01 0.02 0.03 0.04 0.05 0.08 0.12 0.21 0.30 0.34 0.46 0.53 0.52 0.50 0.51 0.50 0.47 0.43 0.35 0.28 0.27 0.25 0.21
0.00 0.00 0.00 0.00 0.00 0.00 0.00 0.00 0.00 0.00 0.00 0.00 0.00 0.00 0.03 0.03 0.02 0.02 0.02 0.02 0.03 0.02 0.02 0.03 0.04 0.06 0.08 0.12 0.21 0.30 0.35 0.38 0.44 0.44 0.42 0.47 0.47 0.43 0.39 0.35 0.30 0.25 0.21 0.17
0.00 0.00 0.00 0.00 0.00 0.00 0.00 0.00 0.00 0.00 0.00 0.00 0.00 0.03 0.07 0.05 0.04 0.03 0.03 0.03 0.04 0.03 0.03 0.03 0.04 0.05 0.06 0.09 0.13 0.21 0.24 0.24 0.24 0.27 0.28 0.27 0.27 0.27 0.25 0.24 0.21 0.16 0.13 0.09
0.02 0.01 0.00 0.00 0.00 0.00 0.00 0.00 0.00 0.00 0.00 0.00 0.01 0.07 0.14 0.12 0.09 0.07 0.05 0.04 0.04 0.04 0.03 0.03 0.03 0.04 0.05 0.06 0.07 0.09 0.10 0.10 0.10 0.12 0.15 0.15 0.16 0.15 0.14 0.13 0.09 0.06 0.05 0.03
0.01 0.01 0.00 0.00 0.00 0.00 0.00 0.00 0.00 0.00 0.00 0.00 0.01 0.07 0.14 0.17 0.16 0.13 0.10 0.07 0.05 0.04 0.04 0.03 0.03 0.03 0.04 0.04 0.04 0.04 0.05 0.06 0.07 0.09 0.11 0.11 0.10 0.10 0.09 0.07 0.05 0.04 0.02 0.02
0.02 0.02 0.02 0.01 0.00 0.00 0.00 0.00 0.00 0.00 0.00 0.00 0.01 0.06 0.13 0.20 0.21 0.17 0.14 0.10 0.06 0.04 0.04 0.03 0.03 0.03 0.03 0.03 0.03 0.03 0.04 0.05 0.07 0.08 0.09 0.09 0.08 0.07 0.05 0.04 0.03 0.02 0.02 0.01
0.01 0.02 0.04 0.02 0.01 0.01 0.00 0.00 0.00 0.00 0.00 0.00 0.01 0.09 0.17 0.29 0.31 0.28 0.25 0.17 0.10 0.06 0.05 0.05 0.04 0.03 0.03 0.03 0.04 0.04 0.05 0.06 0.06 0.06 0.06 0.06 0.05 0.05 0.03 0.03 0.02 0.01 0.01 0.01
0.01 0.01 0.03 0.03 0.02 0.01 0.01 0.01 0.00 0.00 0.00 0.00 0.02 0.11 0.19 0.24 0.28 0.25 0.21 0.17 0.12 0.10 0.08 0.07 0.06 0.05 0.04 0.04 0.04 0.04 0.04 0.04 0.03 0.03 0.03 0.04 0.04 0.03 0.02 0.02 0.01 0.01 0.01 0.00
0.00 0.02 0.05 0.07 0.06 0.03 0.01 0.01 0.01 0.01 0.01 0.02 0.06 0.11 0.16 0.20 0.19 0.18 0.16 0.15 0.14 0.13 0.11 0.10 0.09 0.08 0.06 0.04 0.04 0.03 0.03 0.03 0.02 0.02 0.02 0.01 0.01 0.01 0.00 0.00 0.00 0.00 0.00 0.00
0.00 0.02 0.05 0.06 0.04 0.03 0.02 0.02 0.03 0.04 0.05 0.07 0.10 0.13 0.19 0.25 0.26 0.27 0.28 0.23 0.21 0.18 0.17 0.15 0.13 0.10 0.08 0.07 0.06 0.04 0.04 0.03 0.02 0.02 0.01 0.01 0.01 0.00 0.00 0.00 0.00 0.00 0.00 0.00
0.01 0.02 0.05 0.07 0.05 0.04 0.06 0.07 0.07 0.08 0.14 0.17 0.17 0.20 0.26 0.25 0.25 0.29 0.31 0.27 0.24 0.21 0.18 0.16 0.14 0.12 0.11 0.10 0.09 0.08 0.06 0.05 0.04 0.03 0.02 0.02 0.01 0.01 0.00 0.00 0.00 0.00 0.00 0.00
0.01 0.02 0.03 0.06 0.06 0.07 0.16 0.22 0.22 0.20 0.18 0.18 0.15 0.18 0.23 0.21 0.22 0.26 0.28 0.25 0.23 0.19 0.17 0.16 0.15 0.14 0.14 0.12 0.11 0.10 0.08 0.06 0.05 0.03 0.02 0.02 0.01 0.01 0.00 0.00 0.00 0.00 0.00 0.00
0.01 0.01 0.03 0.03 0.04 0.12 0.21 0.19 0.19 0.20 0.13 0.10 0.09 0.09 0.14 0.17 0.17 0.16 0.18 0.18 0.17 0.16 0.15 0.14 0.14 0.14 0.13 0.11 0.09 0.08 0.06 0.04 0.03 0.02 0.02 0.01 0.01 0.00 0.00 0.00 0.00 0.00 0.00 0.00
0.00 0.01 0.02 0.02 0.04 0.09 0.13 0.11 0.10 0.11 0.12 0.11 0.07 0.05 0.05 0.08 0.12 0.14 0.14 0.13 0.14 0.14 0.13 0.12 0.09 0.08 0.07 0.06 0.05 0.04 0.03 0.02 0.02 0.01 0.00 0.00 0.00 0.00 0.00 0.00 0.00 0.00 0.00 0.00
0.00 0.00 0.02 0.03 0.04 0.06 0.05 0.04 0.06 0.11 0.13 0.12 0.10 0.08 0.07 0.06 0.07 0.08 0.08 0.07 0.07 0.07 0.07 0.06 0.05 0.05 0.03 0.02 0.01 0.01 0.00 0.00 0.00 0.00 0.00 0.00 0.00 0.00 0.00 0.00 0.00 0.00 0.00 0.00
0.01 0.01 0.01 0.03 0.05 0.05 0.03 0.02 0.03 0.05 0.08 0.09 0.09 0.10 0.08 0.07 0.06 0.06 0.05 0.05 0.04 0.04 0.04 0.03 0.02 0.01 0.01 0.01 0.00 0.00 0.00 0.00 0.00 0.00 0.00 0.00 0.00 0.00 0.00 0.00 0.00 0.00 0.00 0.00
0.01 0.01 0.01 0.02 0.03 0.03 0.01 0.01 0.02 0.02 0.03 0.04 0.04 0.04 0.05 0.05 0.05 0.05 0.04 0.03 0.02 0.02 0.01 0.01 0.01 0.00 0.00 0.00 0.00 0.00 0.00 0.00 0.00 0.00 0.00 0.00 0.00 0.00 0.00 0.00 0.00 0.00 0.00 0.00
0.00 0.00 0.01 0.01 0.01 0.02 0.01 0.01 0.01 0.02 0.02 0.02 0.01 0.01 0.01 0.01 0.01 0.02 0.02 0.02 0.02 0.01 0.01 0.01 0.00 0.00 0.01 0.01 0.01 0.01 0.00 0.00 0.00 0.00 0.00 0.00 0.00 0.00 0.00 0.00 0.00 0.00 0.00 0.00
0.01 0.01 0.01 0.01 0.02 0.02 0.02 0.01 0.01 0.01 0.01 0.01 0.01 0.01 0.01 0.01 0.01 0.01 0.01 0.02 0.02 0.01 0.01 0.01 0.01 0.01 0.01 0.01 0.01 0.00 0.00 0.00 0.00 0.00 0.00 0.00 0.01 0.01 0.01 0.00 0.00 0.00 0.00 0.00
0.00 0.01 0.01 0.01 0.02 0.02 0.01 0.01 0.00 0.01 0.01 0.01 0.01 0.01 0.01 0.01 0.01 0.01 0.01 0.01 0.01 0.01 0.01 0.01 0.01 0.01 0.00 0.00 0.00 0.00 0.00 0.00 0.00 0.00 0.00 0.00 0.00 0.00 0.01 0.01 0.00 0.00 0.00 0.00
0.00 0.00 0.01 0.01 0.01 0.01 0.01 0.00 0.00 0.01 0.02 0.03 0.02 0.01 0.01 0.00 0.01 0.01 0.01 0.01 0.01 0.01 0.01 0.01 0.00 0.00 0.00 0.00 0.00 0.00 0.00 0.00 0.00 0.00 0.00 0.00 0.00 0.00 0.01 0.01 0.00 0.00 0.00 0.00
MSLP
1011.59 1012.39 1013.00 1013.38 1013.52 1013.44 1013.18 1012.80 1012.35 1011.85 1011.32 1010.78 1010.22 1009.65 1009.09 1008.55 1008.05 1007.63 1007.31 1007.10 1007.01 1007.04 1007.16 1007.37 1007.64 1007.95 1008.31 1008.71 1009.16 1009.66 1010.23 1010.85 1011.50 1012.18 1012.84 1013.47 1014.03 1014.52 1014.92 1015.25 1015.52 1015.76 1016.00 1016.26
1011.79 1012.45 1012.91 1013.17 1013.24 1013.15 1012.94 1012.65 1012.31 1011.93 1011.52 1011.07 1010.58 1010.06 1009.52 1009.00 1008.52 1008.12 1007.84 1007.67 1007.61 1007.65 1007.76 1007.90 1008.06 1008.24 1008.43 1008.66 1008.96 1009.35 1009.85 1010.46 1011.15 1011.91 1012.68 1013.43 1014.10 1014.68 1015.14 1015.51 1015.80 1016.05 1016.29 1016.55
1011.78 1012.25 1012.55 1012.69 1012.71 1012.64 1012.52 1012.37 1012.20 1012.01 1011.78 1011.48 1011.12 1010.69 1010.23 1009.76 1009.33 1008.98 1008.74 1008.61 1008.58 1008.62 1008.69 1008.75 1008.80 1008.81 1008.83 1008.88 1009.01 1009.27 1009.67 1010.24 1010.94 1011.75 1012.59 1013.43 1014.19 1014.85 1015.39 1015.81 1016.13 1016.40 1016.66 1016.93
1011.58 1011.83 1011.97 1012.01 1012.01 1011.99 1012.00 1012.04 1012.10 1012.14 1012.13 1012.04 1011.84 1011.55 1011.19 1010.80 1010.44 1010.15 1009.96 1009.87 1009.85 1009.88 1009.90 1009.88 1009.80 1009.67 1009.52 1009.39 1009.36 1009.47 1009.76 1010.26 1010.94 1011.75 1012.63 1013.52 1014.34 1015.06 1015.65 1016.12 1016.49 1016.79 1017.07 1017.35
1011.26 1011.30 1011.28 1011.25 1011.25 1011.33 1011.50 1011.76 1012.06 1012.35 1012.58 1012.70 1012.69 1012.54 1012.30 1012.01 1011.73 1011.50 1011.35 1011.29 1011.29 1011.30 1011.28 1011.19 1011.01 1010.75 1010.45 1010.17 1009.99 1009.96 1010.15 1010.56 1011.18 1011.96 1012.84 1013.73 1014.58 1015.33 1015.95 1016.46 1016.86 1017.19 1017.49 1017.80
1010.92 1010.78 1010.64 1010.56 1010.59 1010.78 1011.12 1011.58 1012.12 1012.65 1013.10 1013.42 1013.57 1013.57 1013.44 1013.23 1013.02 1012.85 1012.75 1012.71 1012.72 1012.72 1012.68 1012.54 1012.29 1011.94 1011.55 1011.16 1010.87 1010.74 1010.84 1011.16 1011.70 1012.42 1013.24 1014.11 1014.94 1015.68 1016.31 1016.83 1017.26 1017.62 1017.95 1018.28
1010.67 1010.38 1010.16 1010.06 1010.15 1010.44 1010.93 1011.58 1012.30 1013.01 1013.63 1014.09 1014.37 1014.47 1014.43 1014.29 1014.14 1014.02 1013.96 1013.96 1013.99 1014.00 1013.96 1013.80 1013.53 1013.16 1012.72 1012.29 1011.94 1011.75 1011.77 1012.02 1012.48 1013.12 1013.88 1014.68 1015.45 1016.16 1016.77 1017.28 1017.71 1018.09 1018.44 1018.79
1010.56 1010.19 1009.93 1009.85 1010.00 1010.39 1011.00 1011.76 1012.59 1013.40 1014.11 1014.64 1014.98 1015.14 1015.14 1015.06 1014.96 1014.88 1014.87 1014.91 1014.98 1015.03 1015.01 1014.89 1014.64 1014.29 1013.88 1013.46 1013.12 1012.92 1012.91 1013.10 1013.50 1014.06 1014.73 1015.44 1016.14 1016.79 1017.35 1017.84 1018.26 1018.63 1018.99 1019.35
1010.63 1010.24 1009.99 1009.96 1010.17 1010.63 1011.29 1012.10 1012.96 1013.77 1014.47 1015.00 1015.33 1015.49 1015.51 1015.46 1015.40 1015.38 1015.42 1015.52 1015.65 1015.76 1015.81 1015.75 1015.58 1015.31 1014.97 1014.63 1014.34 1014.17 1014.17 1014.35 1014.71 1015.20 1015.79 1016.41 1017.02 1017.59 1018.09 1018.52 1018.92 1019.27 1019.62 1019.98
1010.86 1010.51 1010.33 1010.36 1010.63 1011.12 1011.79 1012.56 1013.36 1014.09 1014.70 1015.15 1015.42 1015.54 1015.56 1015.54 1015.52 1015.56 1015.68 1015.85 1016.06 1016.25 1016.38 1016.42 1016.35 1016.19 1015.97 1015.74 1015.55 1015.46 1015.51 1015.71 1016.05 1016.49 1017.01 1017.55 1018.07 1018.55 1018.98 1019.36 1019.70 1020.03 1020.36 1020.69
1011.20 1010.95 1010.87 1010.99 1011.31 1011.80 1012.42 1013.10 1013.77 1014.36 1014.82 1015.14 1015.31 1015.38 1015.39 1015.39 1015.44 1015.56 1015.76 1016.02 1016.32 1016.60 1016.83 1016.97 1017.02 1016.98 1016.89 1016.79 1016.73 1016.74 1016.87 1017.11 1017.46 1017.88 1018.34 1018.81 1019.25 1019.65 1020.00 1020.31 1020.60 1020.88 1021.17 1021.48
1011.61 1011.49 1011.54 1011.75 1012.12 1012.59 1013.13 1013.68 1014.18 1014.59 1014.88 1015.05 1015.13 1015.15 1015.16 1015.20 1015.33 1015.54 1015.84 1016.20 1016.59 1016.96 1017.27 1017.51 1017.66 1017.74 1017.77 1017.80 1017.86 1017.99 1018.20 1018.50 1018.87 1019.28 1019.71 1020.12 1020.49 1020.82 1021.09 1021.34 1021.57 1021.80 1022.04 1022.30
1012.03 1012.08 1012.26 1012.57 1012.97 1013.42 1013.87 1014.28 1014.61 1014.84 1014.96 1015.01 1015.01 1015.00 1015.03 1015.14 1015.36 1015.67 1016.08 1016.53 1017.00 1017.44 1017.82 1018.12 1018.34 1018.51 1018.64 1018.78 1018.95 1019.17 1019.47 1019.83 1020.22 1020.64 1021.04 1021.40 1021.71 1021.97 1022.18 1022.37 1022.54 1022.71 1022.90 1023.11
1012.44 1012.66 1012.98 1013.38 1013.81 1014.23 1014.60 1014.88 1015.06 1015.14 1015.14 1015.09 1015.05 1015.05 1015.13 1015.33 1015.65 1016.07 1016.57 1017.10 1017.63 1018.11 1018.52 1018.85 1019.11 1019.32 1019.51 1019.72 1019.97 1020.27 1020.63 1021.03 1021.45 1021.86 1022.24 1022.57 1022.83 1023.04 1023.19 1023.32 1023.43 1023.56 1023.69 1023.85
1012.86 1013.23 1013.67 1014.14 1014.60 1015.00 1015.30 1015.48 1015.55 1015.52 1015.44 1015.36 1015.31 1015.36 1015.52 1015.82 1016.24 1016.76 1017.33 1017.92 1018.47 1018.96 1019.36 1019.68 1019.94 1020.16 1020.38 1020.62 1020.91 1021.26 1021.65 1022.08 1022.51 1022.91 1023.27 1023.56 1023.78 1023.94 1024.04 1024.12 1024.20 1024.27 1024.37 1024.49
1013.31 1013.79 1014.32 1014.84 1015.32 1015.70 1015.95 1016.07 1016.07 1015.99 1015.88 1015.80 1015.80 1015.92 1016.17 1016.58 1017.09 1017.69 1018.31 1018.92 1019.47 1019.92 1020.29 1020.57 1020.79 1020.99 1021.20 1021.44 1021.75 1022.11 1022.51 1022.94 1023.36 1023.75 1024.07 1024.33 1024.51 1024.63 1024.70 1024.75 1024.79 1024.83 1024.90 1024.98
1013.81 1014.36 1014.93 1015.49 1015.96 1016.32 1016.54 1016.63 1016.61 1016.52 1016.43 1016.40 1016.46 1016.67 1017.02 1017.51 1018.10 1018.75 1019.40 1019.99 1020.51 1020.92 1021.22 1021.44 1021.61 1021.76 1021.94 1022.17 1022.46 1022.81 1023.21 1023.62 1024.01 1024.37 1024.66 1024.88 1025.02 1025.11 1025.16 1025.18 1025.20 1025.23 1025.28 1025.34
1014.38 1014.94 1015.53 1016.07 1016.53 1016.87 1017.07 1017.14 1017.12 1017.07 1017.03 1017.06 1017.21 1017.51 1017.95 1018.51 1019.15 1019.81 1020.45 1021.02 1021.48 1021.83 1022.06 1022.22 1022.33 1022.44 1022.59 1022.79 1023.06 1023.39 1023.75 1024.13 1024.49 1024.80 1025.05 1025.23 1025.35 1025.41 1025.44 1025.45 1025.47 1025.50 1025.54 1025.59
1015.00 1015.54 1016.09 1016.60 1017.02 1017.32 1017.50 1017.58 1017.59 1017.58 1017.61 1017.72 1017.96 1018.33 1018.84 1019.45 1020.11 1020.77 1021.38 1021.90 1022.31 1022.59 1022.76 1022.87 1022.94 1023.01 1023.13 1023.31 1023.56 1023.86 1024.19 1024.52 1024.84 1025.10 1025.31 1025.45 1025.54 1025.58 1025.60 1025.62 1025.65 1025.68 1025.73 1025.78
1015.64 1016.13 1016.61 1017.06 1017.42 1017.69 1017.85 1017.94 1017.98 1018.02 1018.12 1018.32 1018.63 1019.07 1019.62 1020.26 1020.92 1021.56 1022.14 1022.60 1022.95 1023.18 1023.32 1023.38 1023.43 1023.49 1023.60 1023.76 1023.99 1024.26 1024.56 1024.85 1025.12 1025.33 1025.49 1025.60 1025.66 1025.69 1025.71 1025.74 1025.78 1025.84 1025.90 1025.95
1016.25 1016.67 1017.07 1017.44 1017.74 1017.96 1018.11 1018.21 1018.29 1018.39 1018.55 1018.82 1019.20 1019.69 1020.27 1020.92 1021.56 1022.18 1022.71 1023.13 1023.44 1023.64 1023.74 1023.80 1023.84 1023.90 1024.01 1024.17 1024.38 1024.63 1024.89 1025.14 1025.36 1025.53 1025.65 1025.72 1025.76 1025.79 1025.81 1025.86 1025.92 1025.99 1026.07 1026.13
1016.78 1017.12 1017.45 1017.74 1017.98 1018.16 1018.30 1018.41 1018.53 1018.68 1018.91 1019.23 1019.66 1020.19 1020.79 1021.43 1022.06 1022.64 1023.14 1023.52 1023.80 1023.98 1024.08 1024.14 1024.20 1024.27 1024.39 1024.55 1024.75 1024.97 1025.20 1025.41 1025.58 1025.71 1025.79 1025.84 1025.87 1025.89 1025.93 1025.98 1026.06 1026.16 1026.25 1026.33
1017.20 1017.47 1017.73 1017.96 1018.16 1018.31 1018.45 1018.58 1018.73 1018.94 1019.22 1019.60 1020.07 1020.62 1021.23 1021.85 1022.46 1023.01 1023.47 1023.83 1024.09 1024.26 1024.37 1024.44 1024.51 1024.60 1024.72 1024.89 1025.08 1025.28 1025.47 1025.64 1025.77 1025.87 1025.92 1025.95 1025.96 1025.99 1026.04 1026.12 1026.21 1026.32 1026.43 1026.51
1017.47 1017.70 1017.92 1018.11 1018.28 1018.44 1018.58 1018.74 1018.94 1019.19 1019.53 1019.94 1020.44 1021.01 1021.61 1022.22 1022.80 1023.32 1023.76 1024.09 1024.34 1024.51 1024.62 1024.71 1024.79 1024.89 1025.01 1025.17 1025.34 1025.51 1025.67 1025.80 1025.90 1025.96 1026.00 1026.02 1026.04 1026.07 1026.14 1026.23 1026.34 1026.46 1026.58 1026.66
1017.61 1017.83 1018.03 1018.22 1018.40 1018.57 1018.75 1018.95 1019.19 1019.49 1019.86 1020.31 1020.83 1021.39 1021.98 1022.57 1023.12 1023.61 1024.01 1024.33 1024.56 1024.73 1024.84 1024.93 1025.01 1025.11 1025.22 1025.35 1025.50 1025.64 1025.76 1025.86 1025.93 1025.98 1026.00 1026.02 1026.05 1026.10 1026.18 1026.29 1026.42 1026.55 1026.66 1026.74
1017.64 1017.87 1018.10 1018.32 1018.53 1018.74 1018.96 1019.21 1019.50 1019.84 1020.25 1020.71 1021.23 1021.79 1022.36 1022.91 1023.42 1023.88 1024.25 1024.54 1024.75 1024.90 1025.01 1025.08 1025.16 1025.23 1025.32 1025.42 1025.53 1025.63 1025.72 1025.79 1025.84 1025.88 1025.91 1025.94 1025.98 1026.06 1026.16 1026.28 1026.42 1026.56 1026.67 1026.74
Thickness
5694 5682 5676 5685 5694 5696 5701 5703 5705 5721 5741 5739 5740 5750 5765 5774 5776 5774 5777 5781 5784 5789 5794 5798 5800 5800 5796 5792 5789 5785 5780 5777 5772 5767 5762 5756 5751 5747 5744 5741 5738 5735 5731 5727
5670 5670 5685 5695 5700 5701 5699 5697 5704 5721 5739 5743 5740 5747 5761 5769 5770 5772 5773 5774 5777 5780 5784 5787 5788 5789 5787 5783 5782 5779 5775 5771 5768 5764 5758 5751 5744 5738 5734 5731 5727 5724 5721 5717
5660 5675 5692 5691 5690 5692 5696 5697 5704 5713 5728 5738 5735 5732 5745 5755 5762 5764 5763 5766 5769 5773 5775 5777 5778 5779 5780 5777 5776 5774 5771 5766 5761 5756 5748 5741 5734 5728 5722 5718 5715 5711 5709 5706
5665 5681 5687 5686 5687 5693 5688 5711 5715 5717 5708 5703 5718 5699 5725 5738 5742 5744 5747 5752 5756 5761 5764 5766 5768 5769 5770 5771 5771 5767 5763 5758 5752 5747 5741 5733 5725 5718 5711 5706 5702 5698 5696 5694
5665 5681 5682 5682 5693 5701 5700 5717 5716 5715 5707 5699 5705 5698 5708 5726 5724 5727 5732 5737 5741 5747 5751 5753 5756 5758 5759 5758 5757 5753 5749 5745 5742 5738 5732 5725 5717 5710 5701 5694 5689 5685 5682 5680
5671 5687 5690 5693 5705 5710 5713 5711 5706 5700 5688 5678 5697 5695 5694 5710 5717 5718 5720 5722 5726 5730 5734 5736 5739 5741 5742 5742 5741 5739 5734 5730 5727 5723 5720 5714 5706 5698 5690 5683 5677 5671 5668 5666
5661 5677 5692 5701 5694 5702 5701 5679 5661 5665 5660 5669 5698 5693 5687 5703 5711 5710 5708 5708 5710 5714 5717 5720 5722 5724 5725 5726 5725 5723 5720 5715 5711 5708 5704 5699 5693 5686 5678 5671 5664 5660 5655 5652
5643 5652 5681 5693 5689 5685 5687 5677 5654 5651 5654 5669 5691 5680 5682 5693 5696 5696 5695 5694 5695 5698 5701 5703 5705 5707 5708 5708 5707 5706 5703 5698 5696 5692 5685 5680 5675 5671 5664 5658 5653 5648 5643 5639
5642 5651 5683 5693 5697 5693 5682 5676 5678 5664 5665 5661 5668 5673 5677 5684 5682 5681 5679 5678 5678 5680 5683 5686 5687 5689 5690 5689 5688 5686 5684 5681 5678 5674 5668 5664 5659 5655 5649 5644 5640 5634 5629 5624
5652 5648 5669 5686 5693 5691 5687 5681 5663 5653 5645 5644 5661 5665 5666 5671 5670 5668 5666 5663 5663 5664 5666 5668 5670 5671 5672 5671 5669 5668 5667 5664 5659 5656 5652 5646 5641 5637 5632 5629 5624 5619 5614 5609
5654 5644 5653 5665 5661 5665 5673 5669 5662 5651 5651 5644 5644 5652 5673 5672 5665 5659 5654 5652 5650 5651 5651 5651 5652 5654 5654 5653 5652 5650 5649 5645 5641 5637 5634 5629 5624 5620 5616 5612 5607 5602 5598 5594
5652 5640 5636 5647 5663 5673 5668 5662 5654 5643 5645 5649 5643 5643 5661 5661 5656 5651 5644 5640 5638 5638 5638 5637 5637 5637 5637 5636 5634 5632 5630 5627 5624 5620 5618 5613 5608 5604 5600 5595 5591 5586 5581 5577
5650 5635 5623 5629 5640 5652 5653 5656 5656 5649 5642 5639 5635 5634 5645 5646 5642 5640 5634 5630 5627 5626 5625 5623 5623 5622 5622 5620 5618 5616 5613 5611 5607 5605 5601 5597 5593 5588 5584 5579 5575 5570 5566 5561
5652 5629 5622 5616 5622 5633 5637 5643 5649 5645 5633 5633 5637 5634 5633 5632 5629 5627 5623 5618 5615 5613 5612 5611 5609 5607 5606 5605 5603 5601 5598 5595 5592 5588 5584 5580 5576 5571 5567 5563 5559 5554 5550 5545
5640 5623 5626 5628 5634 5635 5630 5632 5638 5639 5637 5632 5631 5631 5627 5624 5620 5616 5612 5609 5606 5603 5601 5598 5596 5594 5592 5591 5588 5586 5583 5580 5577 5572 5567 5563 5560 5556 5552 5547 5543 5538 5533 5528
5630 5622 5622 5622 5630 5628 5621 5623 5628 5629 5630 5627 5624 5616 5617 5614 5610 5605 5602 5599 5595 5591 5589 5587 5584 5582 5580 5578 5575 5571 5568 5565 5562 5557 5552 5547 5544 5540 5535 5530 5526 5521 5516 5511
5624 5619 5613 5609 5620 5620 5603 5606 5612 5613 5615 5617 5612 5608 5606 5602 5598 5595 5592 5588 5584 5581 5577 5574 5571 5569 5566 5563 5561 5558 5554 5550 5547 5542 5537 5533 5529 5524 5519 5515 5509 5504 5499 5494
5625 5617 5605 5604 5605 5591 5593 5606 5607 5604 5601 5605 5603 5599 5595 5591 5585 5582 5580 5577 5572 5569 5565 5561 5557 5555 5552 5550 5548 5545 5541 5537 5533 5528 5524 5519 5514 5509 5505 5500 5494 5489 5484 5479
5630 5619 5605 5597 5593 5590 5596 5601 5602 5598 5589 5592 5591 5586 5581 5578 5575 5567 5565 5563 5559 5555 5552 5549 5546 5543 5540 5538 5535 5532 5527 5523 5519 5514 5510 5506 5502 5496 5491 5486 5480 5475 5470 5464
5626 5616 5604 5596 5590 5582 5586 5599 5605 5597 5582 5584 5583 5578 5574 5573 5567 5557 5552 5550 5546 5543 5540 5537 5534 5532 5528 5525 5523 5519 5514 5509 5505 5501 5498 5494 5489 5484 5479 5473 5467 5462 5456 5451
5608 5602 5595 5588 5582 5580 5588 5597 5598 5582 5576 5579 5576 5572 5570 5566 5559 5550 5544 5539 5536 5532 5529 5526 5524 5520 5517 5513 5510 5506 5502 5498 5494 5491 5487 5483 5478 5473 5467 5461 5456 5450 5444 5438
5600 5592 5587 5581 5573 5573 5586 5588 5580 5574 5575 5572 5567 5563 5558 5551 5545 5540 5535 5529 5526 5522 5520 5516 5513 5509 5506 5503 5500 5495 5490 5488 5485 5482 5478 5473 5468 5463 5458 5451 5444 5438 5431 5424
5602 5595 5585 5579 5573 5578 5581 5579 5576 5573 5568 5563 5558 5553 5549 5543 5537 5531 5525 5520 5517 5514 5510 5507 5504 5500 5497 5494 5490 5485 5482 5480 5477 5473 5468 5464 5459 5453 5448 5441 5433 5426 5419 5412
5605 5600 5587 5578 5576 5576 5575 5573 5570 5567 5562 5557 5552 5546 5541 5535 5528 5522 5516 5512 5509 5506 5502 5499 5495 5491 5488 5485 5483 5479 5477 5474 5470 5465 5460 5455 5450 5444 5438 5432 5426 5418 5411 5405
5603 5598 5584 5575 5573 5571 5568 5566 5563 5559 5555 5549 5543 5538 5532 5526 5520 5514 5509 5505 5502 5499 5495 5491 5487 5483 5481 5478 5476 5473 5471 5467 5462 5458 5453 5448 5443 5437 5431 5425 5419 5413 5407 5402
5599 5593 5582 5575 5575 5568 5561 5560 5558 5552 5547 5542 5536 5529 5524 5519 5513 5507 5502 5498 5495 5492 5488 5484 5481 5478 5475 5472 5470 5467 5465 5461 5456 5451 5447 5442 5437 5432 5427 5420 5414 5410 5405 5401